• în România
  • Lista ţărilor
  • Pe 7 zile
  • Temperatura apei
  • Hartă satelitară
  • Meteo pe hartă
  • Widget-uri
  • user-avatar
    Intrare

    Meteo pe oră la Mavlyutovo

    Astăzi, 19 August, Duminică

    Timp Temperatura Precipitaţii Vânt Presiune Umiditate
    00:00 +8°C° 0 mm 3 m/s 752 mmHg 88%
    01:00 +8°C° 0 mm 3 m/s 752 mmHg 88%
    02:00 +7°C° 0 mm 3 m/s 752 mmHg 90%
    03:00 +7°C° 0 mm 2 m/s 752 mmHg 91%
    04:00 +6°C° 0 mm 2 m/s 752 mmHg 92%
    05:00 +7°C° 0 mm 2 m/s 752 mmHg 89%
    06:00 +8°C° 0 mm 2 m/s 753 mmHg 86%
    07:00 +9°C° 0 mm 3 m/s 753 mmHg 84%
    08:00 +11°C° 0 mm 3 m/s 753 mmHg 78%
    09:00 +13°C° 0 mm 3 m/s 752 mmHg 72%
    10:00 +16°C° 0 mm 3 m/s 752 mmHg 66%
    11:00 +17°C° 0 mm 3 m/s 752 mmHg 63%
    12:00 +18°C° 0 mm 3 m/s 752 mmHg 59%
    13:00 +18°C° 0 mm 3 m/s 751 mmHg 56%
    14:00 +18°C° 0 mm 3 m/s 751 mmHg 56%
    15:00 +18°C° 0 mm 3 m/s 751 mmHg 57%
    16:00 +19°C° 0 mm 3 m/s 751 mmHg 57%
    17:00 +17°C° 0 mm 3 m/s 751 mmHg 64%
    18:00 +16°C° 0 mm 2 m/s 751 mmHg 70%
    19:00 +15°C° 0 mm 2 m/s 751 mmHg 77%
    20:00 +14°C° 0 mm 2 m/s 751 mmHg 80%
    21:00 +12°C° 0 mm 2 m/s 751 mmHg 83%
    22:00 +10°C° 0 mm 2 m/s 751 mmHg 86%
    23:00 +11°C° 0 mm 1 m/s 751 mmHg 87%

    Mâine, 20 August, Luni

    Timp Temperatura Precipitaţii Vânt Presiune Umiditate
    00:00 +10°C° 0 mm 1 m/s 751 mmHg 88%
    01:00 +10°C° 0 mm 1 m/s 750 mmHg 89%
    02:00 +10°C° 0 mm 1 m/s 750 mmHg 90%
    03:00 +9°C° 0 mm 1 m/s 750 mmHg 90%
    04:00 +9°C° 0 mm 1 m/s 750 mmHg 90%
    05:00 +10°C° 0 mm 1 m/s 750 mmHg 88%
    06:00 +11°C° 0 mm 1 m/s 750 mmHg 85%
    07:00 +12°C° 0 mm 1 m/s 750 mmHg 82%
    08:00 +14°C° 0 mm 1 m/s 750 mmHg 76%
    09:00 +15°C° 0 mm 1 m/s 750 mmHg 70%
    10:00 +18°C° 0 mm 1 m/s 750 mmHg 63%
    11:00 +19°C° 0 mm 1 m/s 750 mmHg 60%
    12:00 +19°C° 0 mm 2 m/s 749 mmHg 57%
    13:00 +20°C° 0 mm 2 m/s 749 mmHg 54%
    14:00 +20°C° 0 mm 2 m/s 749 mmHg 55%
    15:00 +20°C° 0 mm 2 m/s 749 mmHg 57%
    16:00 +20°C° 0 mm 3 m/s 748 mmHg 58%
    17:00 +19°C° 0 mm 2 m/s 748 mmHg 64%
    18:00 +17°C° 0 mm 2 m/s 748 mmHg 70%
    19:00 +16°C° 0 mm 1 m/s 748 mmHg 76%
    20:00 +15°C° 0 mm 1 m/s 748 mmHg 80%
    21:00 +14°C° 0 mm 1 m/s 748 mmHg 83%
    22:00 +13°C° 0 mm 1 m/s 748 mmHg 87%
    23:00 +13°C° 0 mm 2 m/s 747 mmHg 87%

    Poimâine, 21 August, Marţi

    Timp Temperatura Precipitaţii Vânt Presiune Umiditate
    00:00 +13°C° 0 mm 2 m/s 747 mmHg 87%
    01:00 +13°C° 0 mm 2 m/s 747 mmHg 87%
    02:00 +13°C° 0 mm 2 m/s 747 mmHg 89%
    03:00 +12°C° 0 mm 3 m/s 746 mmHg 91%
    04:00 +12°C° 0 mm 3 m/s 746 mmHg 92%
    05:00 +13°C° 0 mm 3 m/s 746 mmHg 92%
    06:00 +13°C° 0 mm 3 m/s 746 mmHg 92%
    07:00 +14°C° 0 mm 3 m/s 746 mmHg 92%
    08:00 +16°C° 0 mm 3 m/s 746 mmHg 92%
    09:00 +16°C° 0 mm 3 m/s 745 mmHg 91%
    10:00 +17°C° 0 mm 3 m/s 745 mmHg 90%
    11:00 +18°C° 0 mm 3 m/s 745 mmHg 88%
    12:00 +18°C° 0 mm 3 m/s 745 mmHg 86%
    13:00 +19°C° 0 mm 3 m/s 745 mmHg 84%
    14:00 +20°C° 0 mm 2 m/s 745 mmHg 82%
    15:00 +20°C° 0 mm 2 m/s 744 mmHg 80%
    16:00 +21°C° 0 mm 2 m/s 744 mmHg 78%
    17:00 +20°C° 0 mm 2 m/s 744 mmHg 81%
    18:00 +21°C° 0 mm 1 m/s 744 mmHg 84%
    19:00 +20°C° 0 mm 1 m/s 744 mmHg 87%
    20:00 +19°C° 0,3 mm 1 m/s 744 mmHg 90%
    21:00 +18°C° 0,3 mm 2 m/s 743 mmHg 92%
    22:00 +17°C° 0,3 mm 2 m/s 743 mmHg 94%
    23:00 +17°C° 0,2 mm 2 m/s 743 mmHg 95%

    22 August, Miercuri

    Timp Temperatura Precipitaţii Vânt Presiune Umiditate
    00:00 +16°C° 0,2 mm 2 m/s 743 mmHg 95%
    01:00 +16°C° 0,2 mm 3 m/s 742 mmHg 95%
    02:00 +16°C° 0 mm 3 m/s 742 mmHg 95%
    03:00 +16°C° 0 mm 3 m/s 742 mmHg 95%
    04:00 +16°C° 0 mm 3 m/s 742 mmHg 95%
    05:00 +16°C° 0 mm 3 m/s 741 mmHg 93%
    06:00 +17°C° 0 mm 3 m/s 741 mmHg 91%
    07:00 +17°C° 0 mm 3 m/s 741 mmHg 89%
    08:00 +19°C° 0 mm 4 m/s 741 mmHg 84%
    09:00 +20°C° 0 mm 4 m/s 741 mmHg 78%
    10:00 +22°C° 0 mm 5 m/s 741 mmHg 73%
    11:00 +22°C° 0,2 mm 5 m/s 740 mmHg 71%
    12:00 +23°C° 0,2 mm 6 m/s 740 mmHg 69%
    13:00 +23°C° 0,2 mm 6 m/s 740 mmHg 67%
    14:00 +22°C° 0,8 mm 6 m/s 740 mmHg 74%
    15:00 +21°C° 0,8 mm 6 m/s 740 mmHg 80%
    16:00 +20°C° 0,8 mm 5 m/s 740 mmHg 86%
    17:00 +19°C° 0,8 mm 5 m/s 741 mmHg 89%
    18:00 +18°C° 0,8 mm 4 m/s 741 mmHg 91%
    19:00 +15°C° 0,8 mm 4 m/s 741 mmHg 94%
    20:00 +16°C° 0,2 mm 3 m/s 741 mmHg 94%
    21:00 +14°C° 0,2 mm 3 m/s 742 mmHg 94%
    22:00 +14°C° 0,2 mm 2 m/s 742 mmHg 94%
    23:00 +13°C° 0 mm 2 m/s 742 mmHg 94%

    23 August, Joi

    Timp Temperatura Precipitaţii Vânt Presiune Umiditate
    00:00 +12°C° 0 mm 2 m/s 742 mmHg 94%
    01:00 +12°C° 0 mm 2 m/s 743 mmHg 94%
    02:00 +10°C° 0,1 mm 2 m/s 743 mmHg 95%
    03:00 +10°C° 0,1 mm 2 m/s 743 mmHg 95%
    04:00 +9°C° 0,1 mm 2 m/s 744 mmHg 95%
    05:00 +10°C° 0 mm 3 m/s 744 mmHg 93%
    06:00 +10°C° 0 mm 3 m/s 745 mmHg 92%
    07:00 +10°C° 0 mm 4 m/s 745 mmHg 90%
    08:00 +11°C° 0 mm 4 m/s 745 mmHg 83%
    09:00 +12°C° 0 mm 5 m/s 746 mmHg 76%
    10:00 +13°C° 0 mm 5 m/s 746 mmHg 69%
    11:00 +14°C° 0 mm 5 m/s 746 mmHg 66%
    12:00 +15°C° 0 mm 5 m/s 746 mmHg 63%
    13:00 +16°C° 0 mm 6 m/s 746 mmHg 60%
    14:00 +16°C° 0,1 mm 6 m/s 747 mmHg 60%
    15:00 +15°C° 0,1 mm 6 m/s 747 mmHg 61%
    16:00 +15°C° 0,1 mm 6 m/s 747 mmHg 61%
    17:00 +14°C° 0 mm 5 m/s 747 mmHg 65%
    18:00 +13°C° 0 mm 4 m/s 748 mmHg 70%
    19:00 +12°C° 0 mm 4 m/s 748 mmHg 74%
    20:00 +11°C° 0 mm 3 m/s 748 mmHg 77%
    21:00 +10°C° 0 mm 3 m/s 748 mmHg 80%
    22:00 +9°C° 0 mm 2 m/s 748 mmHg 84%
    23:00 +9°C° 0 mm 3 m/s 749 mmHg 83%

    24 August, Vineri

    Timp Temperatura Precipitaţii Vânt Presiune Umiditate
    00:00 +9°C° 0 mm 3 m/s 749 mmHg 83%
    01:00 +9°C° 0 mm 3 m/s 749 mmHg 83%
    02:00 +9°C° 0 mm 3 m/s 749 mmHg 81%
    03:00 +9°C° 0 mm 3 m/s 749 mmHg 79%
    04:00 +10°C° 0 mm 3 m/s 749 mmHg 77%
    05:00 +10°C° 0 mm 3 m/s 749 mmHg 79%
    06:00 +10°C° 0 mm 3 m/s 749 mmHg 80%
    07:00 +10°C° 0 mm 3 m/s 748 mmHg 82%
    08:00 +10°C° 0,3 mm 3 m/s 748 mmHg 85%
    09:00 +11°C° 0,3 mm 3 m/s 748 mmHg 88%
    10:00 +11°C° 0,3 mm 4 m/s 748 mmHg 91%
    11:00 +11°C° 0,3 mm 4 m/s 748 mmHg 92%
    12:00 +11°C° 0,3 mm 4 m/s 748 mmHg 93%
    13:00 +11°C° 0,3 mm 4 m/s 748 mmHg 94%
    14:00 +12°C° 0 mm 4 m/s 748 mmHg 93%
    15:00 +13°C° 0 mm 4 m/s 748 mmHg 92%
    16:00 +13°C° 0 mm 4 m/s 748 mmHg 91%
    17:00 +13°C° 0,1 mm 3 m/s 748 mmHg 92%
    18:00 +13°C° 0,1 mm 3 m/s 748 mmHg 93%
    19:00 +14°C° 0,1 mm 2 m/s 748 mmHg 94%
    20:00 +14°C° 0,2 mm 2 m/s 748 mmHg 95%
    21:00 +13°C° 0,2 mm 2 m/s 748 mmHg 96%
    22:00 +13°C° 0,2 mm 2 m/s 748 mmHg 97%
    23:00 +13°C° 0 mm 2 m/s 748 mmHg 97%
    Arată mai mult